{"data":{"norad_id":66804,"epoch":"2026-05-25T00:16:37.430112Z","epoch_age_seconds":74198,"freshness":"FRESH","line1":"1 66804U 25278P   26145.01154433  .00008822  00000+0  32970-3 0  9990","line2":"2 66804  42.9969  43.1626 0001523 274.6266  85.4412 15.27583017 26888","mean_motion":15.27583017,"eccentricity":0.0001523,"inclination_deg":42.9969,"raan_deg":43.1626,"arg_perigee_deg":274.6266,"mean_anomaly_deg":85.4412,"bstar":0.0003297,"rev_number":2688,"period_min":94.26656253537,"perigee_km":481.99510480461,"apogee_km":484.08501933771,"semimajor_km":6861.1770620712,"source":"CELESTRAK","updated_at":"2026-05-25T13:38:21.329346Z"}}